Wind_Speed
9 4 4 6 6 7 8 9 11 10 8 8 8 8 9 10 12 15 17 19 21 20 20 21 22 23 23 23 24 23 23 24
12 6 5 6 7 7 8 10 11 11 10 10 11 11 10 10 12 13 15 17 18 19 20 21 22 21 21 22 23 24 23 24
10 8 5 4 6 6 7 8 10 11 10 10 9 8 8 9 12 12 15 16 16 16 21 22 22 23 23 23 24 24 20 22
11 7 5 4 5 5 7 8 9 11 11 9 11 9 10 13 14 16 16 16 16 17 20 21 22 23 24 25 25 26 25 22
11 9 7 4 4 5 7 7 8 9 10 10 12 12 11 13 13 15 14 15 16 17 21 21 21 21 22 24 24 24 23 23
9 7 9 5 4 5 6 5 7 8 9 10 11 12 11 12 14 14 16 16 17 19 22 21 22 21 21 22 23 23 22 21
12 12 7 7 5 5 5 5 7 8 9 10 11 12 12 13 16 16 17 16 18 20 23 22 21 22 23 24 22 22 21 21
10 10 10 7 3 4 3 4 7 8 8 10 11 12 11 12 14 15 16 18 20 21 23 23 23 23 24 24 24 20 21 22
10 11 9 10 5 5 5 5 6 8 8 9 10 11 12 11 13 15 16 17 18 20 21 21 22 24 24 23 20 21 20 22
10 9 8 6 4 5 6 6 6 9 9 9 10 11 12 12 12 14 16 16 16 18 20 21 22 24 25 25 22 21 23 22
10 9 6 7 4 4 7 6 8 7 8 10 11 11 12 12 11 13 14 14 16 18 18 19 22 24 25 25 23 23 24 23
8 9 5 6 5 6 6 6 6 6 7 9 11 12 11 11 10 11 12 13 15 16 18 20 22 26 27 25 24 24 24 26
10 11 8 6 5 5 3 4 4 5 7 8 9 10 10 9 10 9 10 12 14 16 17 20 22 25 25 25 24 25 25 26
5 7 8 10 7 5 3 3 3 6 6 7 8 9 8 8 7 9 10 10 13 16 17 20 22 24 24 24 23 23 25 26
8 6 6 8 7 6 4 3 5 8 6 8 6 5 6 6 7 6 10 9 14 16 16 18 25 24 24 25 23 23 25 26
12 9 11 9 8 7 5 2 2 3 2 3 6 5 6 6 7 7 9 8 10 20 18 17 30 26 26 25 22 22 24 25
11 11 13 13 10 8 7 6 4 3 4 3 6 5 6 7 7 9 11 12 12 18 22 15 27 29 27 25 20 23 22 24
13 13 14 12 10 8 8 6 5 5 4 5 5 6 7 9 10 11 11 12 13 15 18 19 21 30 29 25 24 22 21 24
14 15 15 13 12 9 8 7 7 7 6 6 6 7 8 10 10 11 12 11 13 14 15 18 18 26 29 30 24 22 23 23
Wind_Direction
134 122 93 89 68 49 43 40 29 29 21 15 16 22 20 24 23 18 11 6 3 4 1 356 353 349 346 344 339 336 331 327
143 135 127 120 81 59 43 37 29 27 20 12 11 7 8 19 17 17 15 10 5 4 5 357 353 349 347 344 340 339 336 337
152 150 122 77 76 61 58 47 37 27 15 12 6 0 10 24 17 13 14 12 10 8 4 359 356 351 348 348 345 339 336 341
154 156 132 119 83 55 55 47 39 29 17 17 15 24 21 18 11 11 5 10 12 11 5 359 357 354 350 346 344 342 330 334
148 151 147 89 77 68 56 52 44 31 25 29 30 25 17 7 8 2 7 9 11 10 4 2 356 353 348 343 339 338 333 326
136 146 115 80 70 61 49 57 52 35 32 33 32 27 17 3 6 4 6 7 8 9 2 358 355 352 346 341 338 335 331 320
112 105 122 107 85 65 56 42 53 35 30 31 31 25 17 9 8 7 1 3 4 2 1 356 353 351 349 342 340 333 331 322
131 149 143 101 86 98 93 52 59 35 28 29 27 21 20 14 11 3 0 1 1 357 357 356 353 352 349 346 342 339 336 331
141 125 125 121 115 57 49 49 52 37 28 28 29 23 17 18 8 6 7 2 355 355 354 355 356 354 353 353 348 344 342 332
112 110 107 101 89 66 58 37 45 37 23 24 31 23 16 15 9 10 4 358 353 356 358 355 358 358 358 358 353 350 347 342
131 101 74 88 72 65 66 46 49 31 23 22 27 22 17 13 11 13 2 358 359 359 1 360 1 3 3 2 358 358 353 349
110 118 150 92 68 59 60 51 51 36 25 19 20 21 18 14 13 16 5 3 5 6 4 5 5 6 6 4 1 360 358 354
149 165 147 122 108 87 67 73 61 43 34 25 18 21 20 13 16 6 10 13 12 11 10 10 9 10 7 5 3 2 0 359
71 133 157 144 138 134 129 94 66 63 49 34 24 24 21 16 15 12 21 20 18 18 20 16 13 11 9 8 6 9 3 4
171 177 181 148 142 141 146 141 68 72 78 37 21 38 32 21 21 28 38 33 26 25 23 16 22 14 13 12 10 13 9 8
168 178 180 173 164 166 160 142 145 93 63 43 32 31 43 33 33 41 35 43 36 32 26 19 22 21 14 11 11 13 13 12
170 177 188 170 165 175 154 130 108 101 73 51 45 39 41 42 44 46 46 43 36 37 31 21 20 25 15 17 16 18 15 13
183 180 178 160 147 149 143 126 122 101 87 70 53 53 54 49 48 46 48 46 43 41 35 31 18 22 18 21 20 20 17 17
176 167 161 151 146 145 136 133 124 111 93 85 69 65 61 58 56 52 49 49 45 40 35 30 27 15 19 19 20 18 18 17
Height
815 818 819 819 822 823 822 821 821 820 820 821 820 819 820 818 818 817 817 816 813 811 809 807 804 800 797 794 792 789 785 778
812 817 821 820 821 822 823 823 823 822 821 821 820 821 820 820 820 819 818 818 816 814 811 809 806 803 800 797 792 788 784 780
811 818 820 823 823 823 822 823 823 824 824 823 822 821 820 820 820 821 820 818 818 816 814 811 808 804 801 797 795 790 787 784
808 815 820 822 824 826 825 825 826 826 826 825 823 820 820 821 821 820 821 819 818 816 815 812 808 804 801 800 796 794 788 785
805 813 820 825 826 827 826 827 828 829 829 827 824 824 824 824 822 821 821 820 818 815 814 812 810 806 803 800 798 795 793 787
803 812 818 825 829 830 830 829 830 830 829 828 827 826 824 824 823 822 821 819 818 816 814 812 810 807 804 801 797 794 794 791
806 814 820 826 829 831 832 832 832 831 830 829 828 827 826 824 824 823 821 820 819 817 815 813 810 807 803 799 796 794 793 791
806 816 820 826 832 832 832 832 833 832 830 829 828 828 827 827 826 824 823 820 819 818 815 813 811 807 802 798 794 792 790 789
807 815 821 825 830 834 834 833 834 833 831 830 829 829 829 828 828 825 824 822 821 820 818 814 811 808 803 797 794 791 790 788
813 822 825 828 832 835 834 836 835 834 833 832 830 830 831 830 829 827 827 825 823 820 818 817 811 807 802 797 793 790 788 785
816 826 832 830 834 835 836 836 837 836 834 833 832 831 831 832 831 829 830 827 825 822 818 816 811 807 802 797 794 790 787 784
826 829 835 833 834 835 836 837 837 838 836 834 834 832 832 833 833 831 831 830 827 822 820 815 811 806 801 797 794 791 787 783
825 832 833 834 835 835 837 837 838 837 836 836 836 834 833 835 835 834 831 830 828 823 820 816 812 807 803 799 795 792 788 783
828 830 831 831 834 835 836 837 836 836 836 836 836 836 835 836 836 834 832 830 829 824 820 817 812 809 804 801 797 793 791 786
827 833 834 831 832 833 835 835 835 835 836 836 836 837 837 837 835 833 831 830 827 824 821 818 814 810 806 802 799 795 793 787
816 824 829 830 830 831 833 833 834 834 835 836 837 837 836 836 834 832 831 829 826 825 822 820 816 811 808 804 800 797 794 790
815 819 824 825 827 828 829 832 833 834 835 836 837 837 837 835 834 833 830 829 828 826 824 821 818 814 810 805 803 799 796 793
810 815 818 821 823 826 828 830 833 834 835 836 837 837 836 835 833 832 832 831 830 828 826 824 820 817 813 808 804 801 798 795
805 810 816 818 822 826 828 830 833 834 835 837 838 837 836 835 835 834 833 832 831 830 828 826 824 819 815 810 806 803 801 798